Orbital Elements at Epoch 2459200.5 (2020-Dec-17.0) TDB
Reference: JPL 14 (heliocentric ecliptic J2000)
Element | Value | Uncertainty (1-sigma) | Units |
e | .07968698074674295 | 6.9491e-08 | |
a | 2.761825035891645 | 2.3942e-08 | au |
q | 2.541743537430674 | 1.8351e-07 | au |
i | 3.343505856977116 | 7.8143e-06 | deg |
node | 15.49746359833757 | 7.4644e-05 | deg |
peri | 324.034086821155 | 8.3688e-05 | deg |
M | 49.96889605652056 | 3.6241e-05 | deg |
tp | 2458967.803460826810 (2020-Apr-28.30346083) | 0.00016846 | TDB |
period | 1676.457971126557 4.59 | 2.18e-05 5.969e-08 | d yr |
n | .2147384582257585 | 2.7923e-09 | deg/d |
Q | 2.981906534352615 | 2.585e-08 | au |
|
| | Orbit Determination Parameters
Additional Information
|